SCP
0 0 0 0 0 0 0 0 0 0 0 -0 -0 0 -0 -0 0 0 0 -0 -0 -0 -0 -0 -0 0 -0 0 0 0 0 -0
-0 0 0 0 0 0 0 0 0 0 0 0 0 0 -0 -0 -0 0 -0 -0 -0 -0 -0 0 -0 0 -0 -0 -0 0 0 0
0 0 0 0 0 0 0 0 0 0 0 0 -0 -0 -0 -0 -0 -0 0 0 -0 -0 -0 0 0 0 0 0 0 0 0 0
-0 0 0 0 0 -0 0 0 0 0 -0 -0 -0 -0 -0 -0 -0 -0 0 -0 -0 -0 -0 -0 -0 0 0 0 0 0 0 0
0 0 0 0 0 0 0 0 0 0 0 0 0 0 0 0 0 -0 -0 -0 -0 -0 -0 -0 -0 0 0 0 0 0 0 0
0 0 0 0 0 0 0 0 0 0 0 0 0 0 0 0 0 -0 0 0 -0 -0 -0 -0 -0 -0 0 0 0 0 0 0
0 0 0 0 -0 0 0 0 0 0 0 0 0 0 0 0 0 -0 -0 -0 -0 -0 -0 -0 -0 -0 -0 -0 0 0 0 0
0 0 0 0 0 0 0 0 0 0 0 0 0 0 0 0 0 -0 0 -0 -0 -0 -0 -0 -0 -0 -0 0 0 0 0 0
0 0 0 0 0 0 0 0 0 0 0 0 0 0 0 0 0 0 0 -0 0 -0 -0 -0 -0 -0 -0 -0 0 0 0 0
0 0 0 0 0 0 0 2 1 1 1 1 0 0 0 -0 0 0 0 0 -0 -0 -0 -0 0 -0 0 0 -0 -0 0 0
0 0 0 0 0 0 0 0 1 0 0 0 0 0 0 0 0 0 0 0 0 0 0 0 0 0 -0 -0 -0 0 0 0
0 0 0 0 0 0 0 0 0 0 0 0 0 0 0 0 0 0 0 0 0 0 0 0 0 0 0 -0 -0 -0 -0 0
0 0 0 0 0 0 0 0 0 0 0 0 0 0 0 0 0 0 0 0 0 0 0 0 0 0 0 0 0 0 0 0
0 0 0 0 0 1 0 0 0 0 0 0 0 0 0 0 0 0 0 0 0 1 0 0 0 1 1 0 0 0 0 0
0 0 0 0 0 0 0 0 0 0 0 0 0 0 0 0 0 0 0 0 0 0 0 0 0 0 0 0 0 1 1 0
0 0 0 0 0 0 0 0 0 0 0 0 0 0 0 0 0 0 0 0 0 1 0 0 0 0 0 1 0 1 0 0
0 0 0 0 0 0 0 0 0 0 0 0 0 0 -0 0 0 0 0 0 0 0 1 0 0 1 1 1 0 1 0 0
0 0 0 0 0 0 0 0 0 0 0 0 0 0 0 0 0 0 0 0 0 0 0 0 1 1 1 1 1 0 0 0
0 0 0 0 0 0 0 0 0 0 0 0 0 0 0 0 0 0 0 0 0 0 0 0 1 1 1 1 0 0 0 0
Wind_Speed_500mb
6 5 11 8 9 7 12 5 7 7 15 19 12 2 14 27 32 47 71 70 75 81 84 91 85 77 69 60 47 52 52 51
22 9 8 13 11 4 6 5 7 8 10 11 15 15 15 20 43 52 57 70 73 79 84 88 87 78 73 63 49 50 55 55
2 10 12 2 6 8 11 9 11 4 12 15 17 20 19 18 48 59 59 49 68 77 78 79 81 79 74 72 60 52 54 56
17 5 9 3 7 10 10 13 7 10 13 8 17 22 22 34 42 51 62 40 27 70 78 75 74 70 75 77 68 56 46 53
19 12 12 13 10 6 7 6 7 9 12 5 10 14 31 28 36 39 48 51 39 67 77 75 75 81 80 79 73 60 51 50
10 8 5 8 11 7 5 5 5 10 14 19 16 15 29 44 46 45 37 34 47 70 76 74 80 82 79 77 77 65 57 49
12 15 10 12 12 11 11 11 11 14 14 18 17 19 25 47 50 59 47 46 57 65 74 73 78 80 52 74 81 73 62 52
12 13 15 19 22 19 16 13 12 10 11 7 41 44 29 29 41 61 59 61 57 56 65 74 82 85 97 83 68 77 65 55
12 5 11 18 15 11 7 7 1 2 8 20 23 18 37 39 46 58 58 68 64 66 71 82 84 86 82 78 75 78 67 57
8 3 10 14 4 4 12 8 8 7 11 20 25 49 51 54 41 61 46 54 56 55 61 74 79 77 81 74 73 73 61 60
5 6 13 19 16 4 12 11 3 9 17 26 50 31 30 20 36 58 48 41 48 44 50 61 68 69 77 71 67 69 67 60
5 7 10 4 18 33 24 8 5 7 10 20 34 7 10 12 12 39 44 45 46 42 53 57 64 67 68 69 64 64 59 54
8 10 10 6 35 27 10 8 8 9 12 20 6 16 58 59 23 21 27 34 38 43 51 52 60 59 67 64 47 42 43 39
3 6 12 21 16 3 8 11 13 19 15 26 36 46 45 28 19 20 25 28 38 52 53 48 52 61 69 63 42 37 36 35
10 9 10 33 26 32 32 34 26 27 24 23 35 45 47 29 16 16 17 11 30 50 58 46 48 47 47 44 42 41 40 39
5 8 16 47 63 55 42 51 44 34 36 26 34 38 48 35 24 16 13 11 30 51 59 47 47 47 37 35 41 42 40 37
14 29 54 67 38 44 45 43 50 47 44 42 38 36 48 47 35 29 18 12 11 27 48 53 50 49 45 39 40 43 36 33
14 40 34 55 52 66 66 63 50 41 41 44 43 33 37 46 30 27 21 17 16 21 46 64 57 58 49 38 31 33 33 32
46 64 56 64 67 67 60 49 44 37 41 45 48 36 28 31 22 29 27 23 27 29 38 37 44 48 45 36 32 28 29 28
Wind_Direction_500mb
254 112 122 277 228 208 108 25 49 258 292 317 332 143 176 160 181 186 203 201 207 213 217 215 213 207 208 207 207 203 199 194
277 179 238 165 168 72 16 166 243 280 281 241 303 262 237 162 198 196 200 208 205 204 213 218 217 212 211 209 217 210 207 205
182 182 203 165 239 47 121 131 177 193 264 214 230 237 236 232 217 216 212 201 208 209 213 215 214 211 215 210 212 213 211 209
240 265 320 123 86 136 124 262 173 161 267 268 255 261 231 235 232 237 221 212 227 213 204 208 213 213 221 213 211 214 213 212
344 10 7 37 18 96 105 67 213 140 266 309 340 290 260 281 243 240 230 232 242 203 205 209 216 215 219 214 211 212 210 213
207 229 253 300 339 353 102 113 217 221 279 317 311 255 263 243 250 235 217 239 208 198 204 212 216 214 215 217 212 212 209 211
240 257 260 259 238 259 230 209 176 255 209 266 274 283 253 247 238 238 221 217 206 199 202 210 206 205 184 224 216 208 211 210
278 229 248 285 279 255 225 243 230 249 268 223 306 304 284 230 214 234 225 211 210 210 211 209 213 213 208 217 211 215 210 213
259 232 338 298 229 192 135 89 261 182 248 328 314 302 275 265 223 215 233 214 206 223 219 217 215 217 218 222 216 209 212 211
273 248 222 250 318 335 114 104 337 285 315 321 320 313 298 271 251 223 231 223 222 211 213 218 219 219 223 221 213 213 218 215
211 202 289 304 295 201 184 217 283 310 336 339 331 328 272 251 243 218 224 227 222 221 214 215 220 220 221 216 218 214 218 217
139 198 250 256 319 329 320 261 354 6 355 345 346 13 277 6 274 211 212 221 218 220 220 218 215 216 212 209 213 215 217 220
232 227 275 328 310 319 159 246 312 330 353 347 323 268 296 309 283 226 227 220 216 213 216 219 218 209 205 204 214 214 211 218
292 250 270 348 343 51 269 307 281 307 306 337 332 335 326 327 284 253 266 233 220 211 208 206 208 206 206 216 220 207 213 211
204 249 280 299 263 293 280 279 278 281 301 324 326 336 342 336 320 288 327 273 218 222 210 191 193 200 201 207 208 202 205 203
331 265 269 301 305 296 285 265 272 279 282 300 309 320 338 337 328 278 328 290 209 211 216 189 191 183 186 183 189 190 190 190
260 280 282 287 318 335 325 287 275 272 276 284 291 299 326 338 322 308 320 272 272 216 223 205 196 196 195 187 185 190 193 197
251 270 263 274 296 309 313 302 279 279 285 288 277 289 310 328 327 317 336 293 277 266 233 220 208 204 194 194 193 188 196 198
265 277 277 276 289 290 292 299 300 288 288 286 277 280 290 326 332 293 320 315 275 277 246 226 221 199 190 191 184 193 200 203
Wind_Speed_850mb
6 5 11 8 9 7 12 5 7 7 15 19 12 2 14 27 32 47 71 70 75 81 84 91 85 77 69 60 47 52 52 51
22 9 8 13 11 4 6 5 7 8 10 11 15 15 15 20 43 52 57 70 73 79 84 88 87 78 73 63 49 50 55 55
2 10 12 2 6 8 11 9 11 4 12 15 17 20 19 18 48 59 59 49 68 77 78 79 81 79 74 72 60 52 54 56
17 5 9 3 7 10 10 13 7 10 13 8 17 22 22 34 42 51 62 40 27 70 78 75 74 70 75 77 68 56 46 53
19 12 12 13 10 6 7 6 7 9 12 5 10 14 31 28 36 39 48 51 39 67 77 75 75 81 80 79 73 60 51 50
10 8 5 8 11 7 5 5 5 10 14 19 16 15 29 44 46 45 37 34 47 70 76 74 80 82 79 77 77 65 57 49
12 15 10 12 12 11 11 11 11 14 14 18 17 19 25 47 50 59 47 46 57 65 74 73 78 80 52 74 81 73 62 52
12 13 15 19 22 19 16 13 12 10 11 7 41 44 29 29 41 61 59 61 57 56 65 74 82 85 97 83 68 77 65 55
12 5 11 18 15 11 7 7 1 2 8 20 23 18 37 39 46 58 58 68 64 66 71 82 84 86 82 78 75 78 67 57
8 3 10 14 4 4 12 8 8 7 11 20 25 49 51 54 41 61 46 54 56 55 61 74 79 77 81 74 73 73 61 60
5 6 13 19 16 4 12 11 3 9 17 26 50 31 30 20 36 58 48 41 48 44 50 61 68 69 77 71 67 69 67 60
5 7 10 4 18 33 24 8 5 7 10 20 34 7 10 12 12 39 44 45 46 42 53 57 64 67 68 69 64 64 59 54
8 10 10 6 35 27 10 8 8 9 12 20 6 16 58 59 23 21 27 34 38 43 51 52 60 59 67 64 47 42 43 39
3 6 12 21 16 3 8 11 13 19 15 26 36 46 45 28 19 20 25 28 38 52 53 48 52 61 69 63 42 37 36 35
10 9 10 33 26 32 32 34 26 27 24 23 35 45 47 29 16 16 17 11 30 50 58 46 48 47 47 44 42 41 40 39
5 8 16 47 63 55 42 51 44 34 36 26 34 38 48 35 24 16 13 11 30 51 59 47 47 47 37 35 41 42 40 37
14 29 54 67 38 44 45 43 50 47 44 42 38 36 48 47 35 29 18 12 11 27 48 53 50 49 45 39 40 43 36 33
14 40 34 55 52 66 66 63 50 41 41 44 43 33 37 46 30 27 21 17 16 21 46 64 57 58 49 38 31 33 33 32
46 64 56 64 67 67 60 49 44 37 41 45 48 36 28 31 22 29 27 23 27 29 38 37 44 48 45 36 32 28 29 28
Wind_Direction_850mb
254 112 122 277 228 208 108 25 49 258 292 317 332 143 176 160 181 186 203 201 207 213 217 215 213 207 208 207 207 203 199 194
277 179 238 165 168 72 16 166 243 280 281 241 303 262 237 162 198 196 200 208 205 204 213 218 217 212 211 209 217 210 207 205
182 182 203 165 239 47 121 131 177 193 264 214 230 237 236 232 217 216 212 201 208 209 213 215 214 211 215 210 212 213 211 209
240 265 320 123 86 136 124 262 173 161 267 268 255 261 231 235 232 237 221 212 227 213 204 208 213 213 221 213 211 214 213 212
344 10 7 37 18 96 105 67 213 140 266 309 340 290 260 281 243 240 230 232 242 203 205 209 216 215 219 214 211 212 210 213
207 229 253 300 339 353 102 113 217 221 279 317 311 255 263 243 250 235 217 239 208 198 204 212 216 214 215 217 212 212 209 211
240 257 260 259 238 259 230 209 176 255 209 266 274 283 253 247 238 238 221 217 206 199 202 210 206 205 184 224 216 208 211 210
278 229 248 285 279 255 225 243 230 249 268 223 306 304 284 230 214 234 225 211 210 210 211 209 213 213 208 217 211 215 210 213
259 232 338 298 229 192 135 89 261 182 248 328 314 302 275 265 223 215 233 214 206 223 219 217 215 217 218 222 216 209 212 211
273 248 222 250 318 335 114 104 337 285 315 321 320 313 298 271 251 223 231 223 222 211 213 218 219 219 223 221 213 213 218 215
211 202 289 304 295 201 184 217 283 310 336 339 331 328 272 251 243 218 224 227 222 221 214 215 220 220 221 216 218 214 218 217
139 198 250 256 319 329 320 261 354 6 355 345 346 13 277 6 274 211 212 221 218 220 220 218 215 216 212 209 213 215 217 220
232 227 275 328 310 319 159 246 312 330 353 347 323 268 296 309 283 226 227 220 216 213 216 219 218 209 205 204 214 214 211 218
292 250 270 348 343 51 269 307 281 307 306 337 332 335 326 327 284 253 266 233 220 211 208 206 208 206 206 216 220 207 213 211
204 249 280 299 263 293 280 279 278 281 301 324 326 336 342 336 320 288 327 273 218 222 210 191 193 200 201 207 208 202 205 203
331 265 269 301 305 296 285 265 272 279 282 300 309 320 338 337 328 278 328 290 209 211 216 189 191 183 186 183 189 190 190 190
260 280 282 287 318 335 325 287 275 272 276 284 291 299 326 338 322 308 320 272 272 216 223 205 196 196 195 187 185 190 193 197
251 270 263 274 296 309 313 302 279 279 285 288 277 289 310 328 327 317 336 293 277 266 233 220 208 204 194 194 193 188 196 198
265 277 277 276 289 290 292 299 300 288 288 286 277 280 290 326 332 293 320 315 275 277 246 226 221 199 190 191 184 193 200 203